Regional Weather Roundup
Issued by NWS

Home | Current Version | Previous Version | Text Only | Print | Product List | Glossary On
Versions: 1 2 3 4 5 6 7 8 9 10 11 12 13 14 15 16 17 18 19 20 21 22 23 24 25 26 27 28 29 30 31 32 33 34 35 36 37 38 39 40 41 42 43 44 45 46 47 48 49 50
000
ASUS43 KMPX 301510
RWRMN
WEATHER ROUNDUP FOR MINNESOTA
NATIONAL WEATHER SERVICE TWIN CITIES/CHANHASSEN MN
1000 AM CDT SAT APR 30 2016


NOTE: "FAIR" INDICATES FEW OR NO CLOUDS BELOW 12,000 FEET WITH NO
SIGNIFICANT WEATHER AND/OR OBSTRUCTIONS TO VISIBILITY. N/A MEANS
CURRENT SKY AND/OR WEATHER CONDITIONS ARE NOT AVAILABLE.

MNZ060>063-068>070-301600-
   Twin Cities Metro

CITY           SKY/WX    TMP DP  RH WIND       PRES   REMARKS
TWIN CITIES    CLOUDY    50  32  50 E16       30.08F
ST PAUL        CLOUDY    50  33  52 E13G22    30.10S
CRYSTAL        CLOUDY    51  35  54 NE13      30.09S
BLAINE         PTSUNNY   52  36  54 NE15      30.10F
EDEN PRAIRIE   CLOUDY    51  33  50 NE16G22   30.06S
SOUTH ST PAUL  CLOUDY    49  33  53 NE9G20    30.09R
LAKE ELMO      FAIR      50  36  57 E14G22    30.11S
$$
MNZ001>005-007-008-013>017-022>024-027-028-301600-
   Northwest Minnesota

CITY           SKY/WX    TMP DP  RH WIND       PRES   REMARKS
BEMIDJI        SUNNY     48  32  54 E9G16     30.24F
HALLOCK        SUNNY     54  28  37 E13       30.32F
ROSEAU         SUNNY     50  37  62 NE13      30.34F
WARROAD        SUNNY     45  36  70 NE12      30.36S
THIEF RVR FALL SUNNY     52  27  37 NE18G26   30.28F
CROOKSTON      SUNNY     52  28  40 E18G24    30.27S
FOSSTON        SUNNY     48  30  49 NE13G21   30.24F
DETROIT LAKES  SUNNY     50  32  50 E16G23    30.19S
MOORHEAD       SUNNY     52  34  50 NE22      30.20S
PARK RAPIDS    SUNNY     50  29  44 E12G26    30.19F
MAHNOMEN       FAIR      49  32  52 NE20      30.21F
$$
MNZ006-009>011-018-025>026-301600-
   North Central Minnesota

CITY           SKY/WX    TMP DP  RH WIND       PRES   REMARKS
BAUDETTE       SUNNY     51  26  37 NE13      30.33F
FLAG ISLAND    SUNNY     45  36  70 NW7       30.36F
INTL FALLS     SUNNY     47  32  56 N12       30.32S
WASKISH        SUNNY     50  30  46 NE15G23   30.28F
BIG FORK       SUNNY     50  27  40 NE13G20   30.26F
LONGVILLE      SUNNY     48  30  49 NE10G21   30.21F
GRAND RAPIDS   SUNNY     48  28  46 NE10G18   30.25S
CRANE LAKE     SUNNY     46  30  53 NE8       30.32F
ORR            SUNNY     48  27  43 NE6       30.26F
COOK           MOSUNNY   46  30  53 E9        30.27F
WALKER         FAIR      47  31  54 E13G20    30.22F
$$
MNZ012-019>021-037-301600-
   Northeast Minnesota

CITY           SKY/WX    TMP DP  RH WIND       PRES   REMARKS
DULUTH         MOSUNNY   46  31  55 E22G28    30.24R
ELY            SUNNY     46  27  46 NE8G16    30.27F
HIBBING        SUNNY     47  29  49 E13       30.25S
EVELETH        SUNNY     48  30  49 NE10G18   30.26S
DULUTH HARBOR  SUNNY     43  36  75 NE18      30.27S
TWO HARBORS    SUNNY     50  37  62 E16       30.24S
SILVER BAY     SUNNY     46  34  61 NE13G21   30.27R
GRAND MARAIS     N/A     43  33  68 E8        30.30R
G MARAIS ARPRT SUNNY     45  23  42 NE16      30.27F
$$
MNZ029>031-032-039>041-046>048-054>057-064-301600-
   West Central Minnesota

CITY           SKY/WX    TMP DP  RH WIND       PRES   REMARKS
FERGUS FALLS   MOSUNNY   48  32  53 E20G25    30.13S
WHEATON        CLOUDY    50  36  57 NE15G23   30.14R
MORRIS         PTSUNNY   46  36  66 E23G31    30.10R
ALEXANDRIA     CLOUDY    48  31  51 E25G32    30.13R
ELBOW LAKE     FAIR      47  32  56 NE17G25   30.13R
WADENA         SUNNY     46  30  53 NE17G29   30.15F
GLENWOOD       PTSUNNY   46  34  61 NE24G31   30.11S
APPLETON       CLOUDY    46  34  61 NE18      30.07S
BENSON         CLOUDY    46  34  61 E15G23    30.08F
ORTONVILLE     PTSUNNY   45  34  65 NE21G28   30.07S
MADISON        CLOUDY    45  36  70 NE20      30.07S
WILLMAR        FAIR      45  36  70 NE17      30.08F
$$
MNZ033>034-036-042>043-049>051-058-059-301600-
   Central Minnesota

CITY           SKY/WX    TMP DP  RH WIND       PRES   REMARKS
ST CLOUD       CLOUDY    45  33  63 NE15G22   30.13R
SAUK CENTRE    FAIR      46  33  62 NE20      30.12S
PAYNESVILLE    CLOUDY    45  33  65 NE17      30.11S
AITKIN         SUNNY     52  28  40 E16G25    30.18S
PINE RIVER     SUNNY     50  34  53 NE16      30.22S
BRAINERD       CLOUDY    49  31  49 NE20G28   30.18S
STAPLES        CLOUDY    48  28  46 NE14G21   30.16S
LONG PRAIRIE   FAIR      45  32  61 NE20G30   30.14S
LITTLE FALLS   MOSUNNY   46  32  57 NE10G16   30.16R
LITCHFIELD     CLOUDY    46  37  71 NE13      30.08F
BUFFALO        PTSUNNY   47  34  60 NE13      30.11S
MAPLE LAKE     CLOUDY    47  37  69 NE14      30.11S
HUTCHINSON     SUNNY     46  38  71 NE18      30.07F
$$
MNZ037-044-045-052-053-301600-
   East Central Minnesota

CITY           SKY/WX    TMP DP  RH WIND       PRES   REMARKS
PRINCETON      CLOUDY    46  34  61 NE10G16   30.15R
MORA           MOSUNNY   46  32  57 NE7G17    30.17S
CAMBRIDGE      MOSUNNY   48  34  57 NE9G17    30.13R
RUSH CITY      CLOUDY    47  33  57 NE10G17   30.16R
MOOSE LAKE     CLOUDY    46  32  57 NE15G21   30.18F
HINCKLEY       FAIR      48  34  57 E14G23    30.18S
CLOQUET        SUNNY     46  30  53 NE20G26   30.22S
MCGREGOR       SUNNY     48  34  57 NE15G22   30.21S
$$
MNZ071>073-080-081-089-090-097-098-301600-
   Southwest Minnesota

CITY           SKY/WX    TMP DP  RH WIND       PRES   REMARKS
MONTEVIDEO     CLOUDY    45  37  76 E18       30.08F
GRANITE FALLS  CLOUDY    46  38  74 NE16G26   30.05F
CANBY          CLOUDY    45  39  78 NE17      30.05F
MARSHALL       PTSUNNY   43  36  76 NE18      30.02S
REDWOOD FALLS  CLOUDY    46  35  65 NE13G21   30.03S
OLIVIA         CLOUDY    43  34  70 NE21G26   30.04F
PIPESTONE      CLOUDY    43  36  75 NE17G25   29.93F
WINDOM         CLOUDY    45  37  76 NE17G24   29.96S
WORTHINGTON    LGT RAIN  42  39  89 NE26G33   29.91F
JACKSON        DRIZZLE   43  37  81 NE22G28   29.94R
TRACY          PTSUNNY   43  38  82 NE15      30.00F
SLAYTON        CLOUDY    41  37  86 NE17G24   29.96F
$$
MNZ065>067-074>077-082>085-091>093-301600-
   South Central Minnesota

CITY           SKY/WX    TMP DP  RH WIND       PRES   REMARKS
MANKATO        CLOUDY    48  37  66 E21G28    30.01S
NEW ULM        CLOUDY    46  37  71 E15       30.01F
ST JAMES       CLOUDY    41  36  81 NE20G28   29.98F
FAIRMONT       CLOUDY    45  32  61 E20       29.94F
GLENCOE        CLOUDY    49  39  68 NE9G16    30.05F
FARIBAULT      CLOUDY    48  39  71 NE13G20   30.04S
OWATONNA       CLOUDY    46  39  76 E17G26    30.01S
WASECA         CLOUDY    45  37  76 NE20G26   30.01S
ALBERT LEA     CLOUDY    46  41  81 E17G24    29.96S
$$
MNZ078>079-086>088-094>096-301600-
   Southeast Minnesota

CITY           SKY/WX    TMP DP  RH WIND       PRES   REMARKS
ROCHESTER      CLOUDY    44  39  82 E17       30.02S
RED WING       CLOUDY    48  34  57 E12G17    30.06S
STANTON        CLOUDY    48  38  66 NE16      30.04S
DODGE CENTER   CLOUDY    45  37  76 E20       30.01S
WINONA         CLOUDY    46  36  66 SE6       30.06S
AUSTIN         CLOUDY    45  39  81 E21G26    29.97S
PRESTON        CLOUDY    44  37  77 E13G22    30.01S
$$
ABBREVIATIONS USED IN REMARKS
   TC - TEMPERATURES IN CELSIUS
  WCI - WIND CHILL INDEX
   HX - HEAT INDEX
  VSB - VISIBILITY
$$




USA.gov is the U.S. government's official web portal to all federal, state and local government web resources and services.